SL-8 DEB, 13517

Orbit data source: Space-Track

SL-8 DEB, 13517 is space debris in LEO originally from a launch on Mon, 15 Mar 1965 UTC launched from the Tyuratam Missile And Space Complex (TTMTR). Debris objects in space refer to the collection of defunct objects orbiting the Earth. Examples of debris include non-operational satellites, rocket bodies, and fragments generated from explosions, collisions, or faulty payload assembly.

Loading next visibility...
Identifier
13517, 1965-020FF
Orbit
LEO
Country
Flag of CISCIS
Related business
Manufacturer
Unknown
Mission
Spacecraft
Bus & Motor
Unknown
Mass
Unknown
Launch date (UTC)
1965-03-15 (61 years ago)
Launch vehicle
Unknown
Launch site
Tyuratam Missile And Space Complex (TTMTR)
Object type
Payload
Rocket body
Debris
Shape & HBR
Unknown shape, 0.1 m
Radar Cross Section
Small (<0.1 m²)

Expand to show TLE details & history
Last TLE update: 7 hours ago

TLE from 7 hours ago
0 SL-8 DEB
1 13517U 65020FF  26194.12248970  .00000449  00000-0  43146-3 0  9993
2 13517  55.5674 229.9685 0524513 178.8958 218.4186 13.44094088139563
Epoch: 2026-07-13T02:56Z
TLE epoch observation values (Epoch: 2026-07-13T02:56:23.110Z)
Latitude
27.34943°
Longitude
-84.47735°
Altitude
1,410.127 km
Speed
7.006 km/s
True Right ascension
16h 42m 31s
True Declination
27° 13' 16"
Sunlit
Object was in daylight at epoch
Visualization orbit readout
Latitude
Unknown
Longitude
Unknown
Altitude
Unknown
Speed
Unknown
Apparent Right ascension
Unknown
Apparent Declination
Unknown
Sunlit
N/A
Visualization observer readout
Local Sidereal Time
22:27:13
Azimuth
Unknown
Elevation
Unknown
Doppler factor
Unknown
Orbital elements
Apogee altitude
1,485.872 km
Perigee altitude
702.03 km
Semi-major axis
7,472.088 km
Eccentricity
0.05245
Inclination
55.5674°
RAAN
229.9685°
Arg. of periapsis
178.8958°
True anomaly
214.86875°
Mean anomaly
218.4186°
Eccentric anomaly
216.62572°
Mean motion
3.36032 °/min
Orbital period
107.13 mins
BSTAR
0.00043146
Loading maneuver chart data...
Computing Atmospheric mass density...
Loading historical data...
Loading historical data...
Loading historical data...
Loading historical data...
Loading historical data...
Loading historical data...
Loading historical data...

Documentation

Showing up to 5 results
|